Location: ??
(35.5052°N, 139.7262°E)
Time: 05:39:28
(UTC+00:00)

GEOS 3 Rocket - Visible Passes

Search period start: 18 October 2021 00:00
Search period end: 28 October 2021 00:00
Orbit: 785 x 833 km, 115.0° (Epoch: 17 October)

Date Brightness Start Highest point End Pass type
(mag) Time Alt. Az. Time Alt. Az. Time Alt. Az.
18 Oct 4.1 18:52:43 10° NE 18:57:46 58° ESE 19:01:31 18° SSW visible
19 Oct 5.2 18:29:20 10° NE 18:33:48 30° ESE 18:37:44 12° S visible
19 Oct 4.1 20:07:06 10° NNE 20:11:49 38° NW 20:16:29 10° WSW visible
20 Oct 6.1 18:06:45 10° ENE 18:09:44 16° ESE 18:12:41 10° SSE visible
20 Oct 3.5 19:42:59 10° NNE 19:48:05 69° NW 19:53:08 10° SW visible
21 Oct 3.9 19:19:09 10° NE 19:24:14 64° ESE 19:29:16 10° SSW visible
22 Oct 5.1 18:55:41 10° NE 19:00:17 33° ESE 19:04:50 10° S visible
23 Oct 6.1 18:32:55 10° ENE 18:36:14 17° ESE 18:39:32 10° SSE visible
23 Oct 3.6 20:09:29 10° NNE 20:14:32 63° NW 20:19:33 10° SW visible
24 Oct 3.8 19:45:36 10° NE 19:50:43 71° ESE 19:55:46 10° SSW visible
25 Oct 5.0 19:22:04 10° NE 19:26:47 37° ESE 19:31:26 10° S visible
26 Oct 6.1 18:59:08 10° ENE 19:02:45 19° ESE 19:06:19 10° SSE visible
27 Oct 3.7 20:12:03 10° NE 20:17:11 79° ESE 20:22:15 10° SSW visible
